This is the latest recevied weather packets stored in our database for station/object SP6PGH-13. If no packets are shown the sender has not sent any weather packets the latest 10 day(s).
| Time | Temp. | Humidity | Pressure | Rain* | Wind** | Luminosity | Snow |
|---|---|---|---|---|---|---|---|
| 1777311434 | 13.33° C | 36% | 1006.8 hPa | - | - | 18 W/m² | - |
| 1777310533 | 14.44° C | 33% | 1006.8 hPa | - | - | 27 W/m² | - |
| 1777309631 | 15° C | 30% | 1006.9 hPa | - | - | 41 W/m² | - |
| 1777308730 | 15.56° C | 30% | 1006.8 hPa | - | - | 47 W/m² | - |
| 1777307829 | 16.11° C | 29% | 1006.8 hPa | - | - | 62 W/m² | - |
| 1777306931 | 16.11° C | 28% | 1006.9 hPa | - | - | 99 W/m² | - |
| 1777306027 | 16.67° C | 28% | 1006.9 hPa | - | - | 136 W/m² | - |
| 1777305126 | 16.67° C | 28% | 1006.9 hPa | - | - | 156 W/m² | - |
| 1777304225 | 16.67° C | 28% | 1007 hPa | - | - | 212 W/m² | - |
| 1777303324 | 17.22° C | 26% | 1007.1 hPa | - | - | 245 W/m² | - |
| 1777302422 | 16.67° C | 25% | 1007.2 hPa | - | - | 282 W/m² | - |
| 1777301521 | 17.22° C | 24% | 1007.3 hPa | - | - | 314 W/m² | - |
| 1777300620 | 16.67° C | 25% | 1007.5 hPa | - | - | 361 W/m² | - |
| 1777299719 | 17.22° C | 24% | 1007.6 hPa | - | - | 407 W/m² | - |
| 1777298818 | 16.67° C | 24% | 1007.8 hPa | - | - | 438 W/m² | - |
| 1777297916 | 16.11° C | 25% | 1007.9 hPa | - | - | 476 W/m² | - |
| 1777297015 | 16.11° C | 26% | 1008 hPa | - | - | 518 W/m² | - |
| 1777296114 | 16.67° C | 25% | 1008.2 hPa | - | - | 552 W/m² | - |
| 1777295213 | 16.11° C | 25% | 1008.3 hPa | - | - | 584 W/m² | - |
| 1777294312 | 15.56° C | 28% | 1008.4 hPa | - | - | 618 W/m² | - |
| 1777293411 | 15.56° C | 24% | 1008.6 hPa | - | - | 646 W/m² | - |
| 1777292510 | 15.56° C | 28% | 1008.7 hPa | - | - | 666 W/m² | - |
| 1777291608 | 15.56° C | 25% | 1008.8 hPa | - | - | 677 W/m² | - |
| 1777290708 | 15° C | 25% | 1008.9 hPa | - | - | 690 W/m² | - |
| 1777288902 | 15° C | 25% | 1009.1 hPa | - | - | 709 W/m² | - |
* Rain since midnight (hover to see other rain measurements)
** Current wind speed in m/s (hover to see current wind gust speed)